{"data":{"norad_id":64350,"epoch":"2026-05-24T21:13:04.003968Z","epoch_age_seconds":95505,"freshness":"FRESH","line1":"1 64350U 25126G   26144.88407412  .00001978  00000+0  17353-3 0  9991","line2":"2 64350  70.0008 202.3970 0003792 267.7471  92.3254 14.98334375 52091","mean_motion":14.98334375,"eccentricity":0.0003792,"inclination_deg":70.0008,"raan_deg":202.397,"arg_perigee_deg":267.7471,"mean_anomaly_deg":92.3254,"bstar":0.00017353,"rev_number":5209,"period_min":96.106718502003,"perigee_km":569.40685363679,"apogee_km":574.67786966467,"semimajor_km":6950.1793616507,"source":"CELESTRAK","updated_at":"2026-05-25T13:38:20.401451Z"}}